Current weather by "City, St" or "zip code"  
 

Current Conditions: Omaha / Offutt Air Force Base, NE

Fair


63.0 F

Last Updated on Oct 31 2020, 12:56 pm CDT
Humidity: 44%
Wind Speed: SW 12.7 G 23.0 mph
Barometer 29.91 in
Dewpoint: 40.5 F
Visibility: 10.00 mi
Precip: --
Heat Index: NA
Wind Chill: 62 F
Current conditions at:

Omaha / Offutt Air Force Base, NE (KOFF)

Lat: 41.11667 Lon: 95.9

Local Radar Image active severe weather and emergency alerts image image weather storm and storm spotter reports image weather observation monitoring service image
Local
Radar
Active
Alerts
Storm Reports Obs
Monitoring

Sign-up For Email & Text Message Weather Alert Notification Services



Advertise Here

Observation History for Omaha / Offutt Air Force Base, NE


Time Wind
(mph)
Vis
(mi)
Weather Precip (in) Temperature (F) Relative
Humidity
Wind
Chill
(F)
Heat
Index
(F)
Pressure
Air Dwpt altimeter
(in)
sea level
(mb)
Rmks
12:56 pm CDT SW 12.7 G 23.0 10.00 Fair -- 63.0 40.5 44% 62 NA 29.91 1013.4
11:56 am CDT SW 20.7 G 26.5 10.00 Fair and Breezy -- 61.0 39.6 45% 58 NA 29.91 1013.4
10:56 am CDT SW 23.0 G 28.8 10.00 Fair and Breezy -- 59.0 37.8 45% 55 NA 29.91 1013.4
9:56 am CDT S 12.7 10.00 Fair -- 53.0 36.9 54% 49 NA 29.92 1014.0
8:56 am CDT S 9.2 10.00 Fair -- 45.0 36.9 72% 40 NA 29.89 1013.2
7:56 am CDT S 8.1 10.00 Fair -- 42.0 36.1 79% 37 NA 29.89 1013.2
6:56 am CDT SE 5.8 10.00 Fair -- 43.0 36.7 79% 39 NA 29.92 1014.1
5:56 am CDT SE 11.5 10.00 Fair -- 43.0 37.0 80% 37 NA 29.93 1014.3
4:56 am CDT S 12.7 10.00 Fair -- 43.0 37.2 79% 36 NA 29.95 1014.8
3:59 am CDT S 10.4 10.00 Fair -- 45.0 35.6 71% 40 NA 30.02 M
1:56 am CDT N 0.0 10.00 Fair -- 40.0 34.2 78% NA NA 30.01 1017.0
12:56 am CDT SE 8.1 10.00 Fair -- 43.0 35.1 73% 38 NA 30.03 1017.8
11:56 pm CDT SE 8.1 10.00 Fair -- 46.0 35.2 67% 42 NA 30.05 1018.5
10:56 pm CDT SE 10.4 10.00 Fair -- 46.0 34.7 65% 41 NA 30.06 1018.9
9:56 pm CDT SE 5.8 10.00 Fair -- 44.0 34.2 68% 41 NA 30.07 1019.4
8:56 pm CDT N 0.0 10.00 Fair -- 42.0 32.9 70% NA NA 30.09 1020.2
7:56 pm CDT SE 5.8 10.00 Fair -- 43.0 33.1 68% 39 NA 30.10 1020.8
6:56 pm CDT SE 5.8 10.00 Fair -- 46.0 34.2 63% 43 NA 30.10 1020.6
5:56 pm CDT SE 5.8 10.00 Fair -- 55.0 35.8 48% 54 NA 30.11 1020.8
4:56 pm CDT SE 8.1 10.00 Fair -- 59.0 35.2 41% 58 NA 30.12 1021.0
3:56 pm CDT SE 5.8 10.00 Fair -- 59.0 34.2 39% 58 NA 30.13 1021.4
2:56 pm CDT SE 4.6 10.00 Fair -- 58.0 33.6 40% 58 NA 30.15 1022.1
1:56 pm CDT N 0.0 10.00 Fair -- 54.0 32.2 43% NA NA 30.17 1022.9

Regional Weather Observation


Blair Municipal Airport, NE (KBTA)

Fair
60.0 F

Omaha / Offutt Air Force Base, NE (KOFF)

Fair
63.0 F

Omaha - Eppley Airfield, NE (KOMA)

Fair
63.0 F

Council Bluffs, IA (KCBF)

Fair
61.0 F

Fremont Municipal Airport, NE (KFET)

Fair
64.0 F

Wahoo, NE (KAHQ)

Fair
63.0 F